sat.trackr.live / text

‹ back to catalog

FLOCK 4BE-36

NORAD 60486 · 2024-149U

PAYLOAD ACTIVE UNKNOWN

§ Identity

Operator
Country
US
Launch date
2024-08-16
Launch site
AFWTR
Launch vehicle
Mass (kg)
RCS (m²)

Purposes: earth_obs

External: N2YO · Heavens-Above · Gunter

§ Orbital elements

Epoch: 2026-09-19T01:03:24.871104Z

Period
93.04 min
Inclination
97.3683°
Eccentricity
0.0002670
Mean motion
15.47786987 rev/d
Perigee alt
421.4 km
Apogee alt
425.0 km
Semi-major
6,801.3 km
B*
6.6876e-4
RAAN
347.8501°
Arg perigee
262.1439°
Mean anomaly
97.9508°
Rev number
11,684

§ Raw data

FLOCK 4BE-361 60486U 24149U   26262.04403786  .00034707  00000+0  66876-3 0  99902 60486  97.3683 347.8501 0002670 262.1439  97.9508 15.47786987116842

JSON: /api/v1/satellites/60486 · /tle

For live sub-satellite position, see the globe view (requires WebGL).

§ Visibility from observer

Set your observer location to see the next 7 days of passes ≥ 10°. The values pass through the URL so the page stays shareable.

No JS? Fill the form by hand. The geolocation button needs JavaScript.